GW6351 Weather Reports


time (UTC)temp
F
wind
direction
speed
knots
gust
knots
rain 1hr
in
rain 24hr
in
rain mn
in
humidity
%
barometer
mb
20260507090514 42 270 10.4 22.6 0.00 0.00 0.00 68 1011.2
20260507090039 42 266 13.0 22.6 0.00 0.00 0.00 68 1010.9
20260507085513 42 206 8.7 25.2 0.00 0.00 0.00 71 1011.0
20260507085016 42 198 9.6 25.2 0.00 0.00 0.00 70 1011.0
20260507084544 43 233 9.6 24.3 0.00 0.00 0.00 67 1010.7
20260507084015 43 274 9.6 24.3 0.00 0.00 0.00 66 1010.6
20260507083514 42 269 11.3 20.0 0.00 0.00 0.00 68 1010.3
20260507083051 43 246 9.6 20.9 0.00 0.00 0.00 66 1010.6
20260507082522 42 252 11.3 24.3 0.00 0.00 0.00 67 1010.3
20260507082015 42 257 13.0 24.3 0.00 0.00 0.00 67 1010.0
20260507081546 43 245 8.7 21.7 0.00 0.00 0.00 66 1010.1
20260507081015 43 287 7.8 24.3 0.00 0.00 0.00 65 1010.3
20260507080515 43 171 7.8 24.3 0.00 0.00 0.00 65 1010.1
20260507080040 43 269 7.8 25.2 0.00 0.00 0.00 66 1010.2
20260507075517 43 163 7.8 33.0 0.00 0.00 0.00 67 1010.3
20260507075016 43 201 12.2 30.4 0.00 0.00 0.00 69 1009.8
20260507074549 43 279 12.2 30.4 0.00 0.00 0.00 69 1010.3
20260507074015 43 173 13.9 29.5 0.00 0.00 0.00 68 1010.0
20260507073519 44 257 8.7 29.5 0.00 0.00 0.00 65 1010.2
20260507073053 44 148 12.2 26.9 0.00 0.00 0.00 67 1010.2
20260507072515 44 243 13.0 31.3 0.00 0.00 0.00 66 1010.1
20260507072016 44 185 9.6 31.3 0.00 0.00 0.00 65 1010.2
20260507071545 44 263 9.6 24.3 0.00 0.00 0.00 65 1010.6
20260507071014 44 217 10.4 19.1 0.00 0.00 0.00 63 1010.1
20260507070517 45 287 9.6 26.1 0.00 0.00 0.00 65 1010.3
20260507070047 44 254 8.7 26.1 0.00 0.00 0.00 66 1010.3
20260507065519 44 184 12.2 26.1 0.00 0.00 0.00 67 1010.2
20260507065018 44 161 12.2 26.9 0.00 0.00 0.00 67 1010.2
20260507064546 44 252 12.2 26.9 0.00 0.00 0.00 68 1010.3
20260507064015 44 259 14.8 26.9 0.00 0.00 0.00 70 1010.2
20260507063517 43 252 11.3 23.5 0.00 0.00 0.00 72 1010.3
20260507063047 43 302 8.7 23.5 0.00 0.00 0.00 76 1010.6
20260507062519 42 212 13.0 20.0 0.00 0.00 0.00 77 1010.2
20260507062201 43 231 12.2 23.5 0.00 0.00 0.00 76 1010.1
20260507061532 43 228 10.4 25.2 0.00 0.00 0.00 75 1010.2
20260507061011 43 234 11.3 26.9 0.00 0.00 0.00 72 1010.1
20260507060515 44 243 10.4 25.2 0.00 0.00 0.00 70 1010.8
20260507060031 44 265 12.2 21.7 0.00 0.00 0.00 71 1010.3
20260507055512 44 207 11.3 21.7 0.00 0.00 0.00 72 1010.8
20260507055014 44 136 10.4 24.3 0.00 0.00 0.00 72 1011.1
20260507054538 44 246 12.2 24.3 0.00 0.00 0.00 72 1010.6
20260507054011 44 247 12.2 24.3 0.00 0.00 0.00 71 1011.0
20260507053510 44 171 13.0 24.3 0.00 0.00 0.00 73 1011.2
20260507053032 43 229 12.2 22.6 0.00 0.00 0.00 74 1011.4
20260507052511 43 243 12.2 22.6 0.00 0.00 0.00 75 1011.5
20260507052010 44 241 9.6 23.5 0.00 0.00 0.00 74 1011.7
20260507051531 44 151 13.9 23.5 0.00 0.00 0.00 73 1011.5
20260507051012 44 151 10.4 20.0 0.00 0.00 0.00 74 1011.7
20260507050511 44 333 11.3 20.0 0.00 0.00 0.00 72 1011.7
20260507050039 44 277 10.4 20.9 0.00 0.00 0.00 74 1012.3
20260507045512 44 206 8.7 20.9 0.00 0.00 0.00 73 1012.4
20260507045013 44 250 9.6 20.9 0.00 0.00 0.00 72 1012.4
20260507044538 45 241 8.7 21.7 0.00 0.00 0.00 70 1012.5
20260507044011 45 199 9.6 21.7 0.00 0.00 0.00 68 1012.5
20260507043511 45 150 9.6 20.0 0.00 0.00 0.00 69 1012.7
20260507043032 46 189 7.8 22.6 0.00 0.00 0.00 68 1012.7
20260507042509 46 227 7.8 22.6 0.00 0.00 0.00 67 1012.9
20260507042012 46 159 8.7 21.7 0.00 0.00 0.00 67 1012.9
20260507041537 46 113 10.4 21.7 0.00 0.00 0.00 67 1012.9
20260507041013 46 238 10.4 20.9 0.00 0.00 0.00 69 1012.8
20260507040511 46 244 9.6 20.9 0.00 0.00 0.00 66 1012.9
20260507040033 47 254 7.0 20.9 0.00 0.00 0.00 65 1013.0
20260507035513 47 215 9.6 20.9 0.00 0.00 0.00 63 1012.4
20260507035013 47 297 9.6 22.6 0.00 0.00 0.00 62 1012.8
20260507034537 48 194 9.6 22.6 0.00 0.00 0.00 61 1013.0
20260507034012 48 258 9.6 26.1 0.00 0.00 0.00 59 1012.9
20260507033510 48 257 10.4 26.1 0.00 0.00 0.00 58 1012.9
20260507033034 48 225 9.6 21.7 0.00 0.00 0.00 57 1012.7
20260507032513 49 212 11.3 22.6 0.00 0.00 0.00 57 1012.5
20260507032013 49 196 10.4 22.6 0.00 0.00 0.00 56 1012.7
20260507031532 49 187 8.7 20.0 0.00 0.00 0.00 56 1012.9
20260507031015 49 246 8.7 20.0 0.00 0.00 0.00 57 1012.9
20260507030511 50 230 8.7 20.0 0.00 0.00 0.00 56 1013.1
20260507030032 50 184 7.8 19.1 0.00 0.00 0.00 54 1013.5
20260507025510 50 165 9.6 19.1 0.00 0.00 0.00 54 1013.3
20260507025010 51 287 7.8 16.5 0.00 0.00 0.00 54 1013.3
20260507024532 51 194 10.4 20.9 0.00 0.00 0.00 53 1013.4
20260507024009 51 130 7.8 20.9 0.00 0.00 0.00 55 1013.2
20260507023516 51 181 6.1 15.6 0.00 0.00 0.00 55 1013.2
20260507023040 51 223 7.8 16.5 0.00 0.00 0.00 54 1013.1
20260507022516 51 205 9.6 20.0 0.00 0.00 0.00 53 1013.3
20260507022013 51 246 8.7 20.0 0.00 0.00 0.00 53 1013.3
20260507021533 51 222 8.7 23.5 0.00 0.00 0.00 53 1013.3
20260507021012 52 228 10.4 23.5 0.00 0.00 0.00 53 1013.2
20260507020510 52 251 10.4 21.7 0.00 0.00 0.00 52 1013.3
20260507020034 52 228 8.7 26.1 0.00 0.00 0.00 50 1013.6
20260507015511 52 138 8.7 26.1 0.00 0.00 0.00 51 1013.3
20260507015012 53 236 7.8 26.1 0.00 0.00 0.00 51 1013.6
20260507014542 53 212 8.7 26.1 0.00 0.00 0.00 50 1013.7
20260507014013 53 219 10.4 19.1 0.00 0.00 0.00 50 1013.5
20260507013513 53 262 7.0 17.4 0.00 0.00 0.00 50 1013.4
20260507013032 53 247 8.7 17.4 0.00 0.00 0.00 49 1013.3
20260507012510 53 300 9.6 17.4 0.00 0.00 0.00 49 1013.3
20260507012011 53 188 6.1 21.7 0.00 0.00 0.00 50 1013.0
20260507011532 53 182 7.8 21.7 0.00 0.00 0.00 48 1013.1
20260507011012 53 171 8.7 17.4 0.00 0.00 0.00 49 1012.9
20260507010515 53 142 9.6 18.2 0.00 0.00 0.00 48 1013.3
20260507010030 53 258 8.7 25.2 0.00 0.00 0.00 47 1013.1
20260507005511 53 207 10.4 25.2 0.00 0.00 0.00 47 1013.2
20260507005013 53 192 10.4 20.0 0.00 0.00 0.00 47 1013.2
20260507004541 54 263 10.4 20.9 0.00 0.00 0.00 47 1013.4
20260507004011 54 275 9.6 20.0 0.00 0.00 0.00 47 1013.1
20260507003511 54 248 9.6 20.0 0.00 0.00 0.00 48 1013.2
20260507003034 54 177 11.3 20.9 0.00 0.00 0.00 48 1013.2
20260507002512 54 217 9.6 20.0 0.00 0.00 0.00 48 1013.2
20260507002011 54 285 7.8 21.7 0.00 0.00 0.00 48 1013.1
20260507001531 54 174 6.1 21.7 0.00 0.00 0.00 49 1013.3
20260507001011 54 264 11.3 21.7 0.00 0.00 0.00 49 1013.4
20260507000511 54 144 8.7 21.7 0.00 0.00 0.00 48 1013.3
20260507000038 54 229 8.7 20.0 0.00 0.00 0.00 49 1013.3
20260506235512 54 202 7.8 20.0 0.00 0.00 0.00 50 1013.3
20260506235012 54 241 10.4 17.4 0.00 0.00 0.00 51 1013.7
20260506234536 54 225 9.6 20.9 0.00 0.00 0.00 51 1013.4
20260506234011 54 128 9.6 26.9 0.00 0.00 0.00 50 1013.4
20260506233512 54 242 10.4 26.9 0.00 0.00 0.00 52 1013.4
20260506233032 54 232 10.4 21.7 0.00 0.00 0.00 53 1013.6
20260506232513 54 219 9.6 21.7 0.00 0.00 0.00 53 1013.4
20260506232011 55 193 13.9 21.7 0.00 0.00 0.00 52 1013.4
20260506231534 55 251 9.6 17.4 0.00 0.00 0.00 51 1013.2
20260506231013 55 119 10.4 17.4 0.00 0.00 0.00 51 1013.4
20260506230515 55 207 6.1 17.4 0.00 0.00 0.00 53 1013.4
20260506230050 56 191 7.8 19.1 0.00 0.00 0.00 50 1013.5
20260506225511 56 248 9.6 20.0 0.00 0.00 0.00 50 1013.7
20260506225013 56 197 9.6 20.0 0.00 0.00 0.00 51 1013.5
20260506224532 56 141 10.4 27.8 0.00 0.00 0.00 51 1013.7
20260506224012 56 215 9.6 20.9 0.00 0.00 0.00 50 1013.9
20260506223513 56 173 11.3 19.1 0.00 0.00 0.00 50 1014.1
20260506223046 57 213 8.7 19.1 0.00 0.00 0.00 50 1014.0
20260506222514 57 192 11.3 20.9 0.00 0.00 0.00 47 1014.0
20260506222013 57 229 7.8 19.1 0.00 0.00 0.00 48 1014.2
20260506221532 57 246 8.7 19.1 0.00 0.00 0.00 47 1014.1
20260506221017 57 205 7.0 16.5 0.00 0.00 0.00 48 1014.2
20260506220516 57 143 11.3 16.5 0.00 0.00 0.00 46 1014.4
20260506220033 58 158 7.0 17.4 0.00 0.00 0.00 46 1014.4
20260506215516 57 250 7.8 18.2 0.00 0.00 0.00 48 1014.4
20260506215013 57 180 7.8 18.2 0.00 0.00 0.00 46 1014.3
20260506214531 58 134 7.0 16.5 0.00 0.00 0.00 48 1014.4
20260506214014 57 154 7.0 18.2 0.00 0.00 0.00 47 1014.3
20260506213511 57 164 7.0 21.7 0.00 0.00 0.00 49 1014.2
20260506213045 57 198 11.3 21.7 0.00 0.00 0.00 49 1014.5
20260506212513 57 129 8.7 19.1 0.00 0.00 0.00 50 1014.4
20260506212010 57 235 7.8 19.1 0.00 0.00 0.00 50 1014.6
20260506211539 58 160 7.0 19.1 0.00 0.00 0.00 48 1014.4
20260506211014 58 119 7.8 19.1 0.00 0.00 0.00 45 1014.5
20260506210511 58 198 7.0 18.2 0.00 0.00 0.00 43 1014.3
20260506210037 59 149 9.6 17.4 0.00 0.00 0.00 44 1014.5
20260506205511 58 208 7.8 19.1 0.00 0.00 0.00 44 1014.5
20260506205013 58 174 7.8 16.5 0.00 0.00 0.00 46 1014.3
20260506204545 58 215 6.1 17.4 0.00 0.00 0.00 47 1014.4
20260506204013 59 194 8.7 17.4 0.00 0.00 0.00 45 1014.3
20260506203513 59 200 7.0 14.8 0.00 0.00 0.00 46 1014.3
20260506203040 59 223 6.1 16.5 0.00 0.00 0.00 45 1014.3
20260506202511 59 189 7.0 16.5 0.00 0.00 0.00 43 1014.2
20260506202011 60 245 5.2 16.5 0.00 0.00 0.00 45 1014.3
20260506201551 60 200 7.0 15.6 0.00 0.00 0.00 44 1014.3
20260506201012 59 120 6.1 16.5 0.00 0.00 0.00 44 1014.3
20260506200513 59 233 7.0 13.0 0.00 0.00 0.00 47 1014.2
20260506200040 60 251 6.1 15.6 0.00 0.00 0.00 45 1014.2
20260506195513 60 250 7.0 13.9 0.00 0.00 0.00 43 1014.2
20260506195011 60 225 6.1 13.0 0.00 0.00 0.00 44 1014.2
20260506194552 60 215 7.0 10.4 0.00 0.00 0.00 45 1014.2
20260506194013 60 232 4.3 12.2 0.00 0.00 0.00 45 1014.3
20260506193514 60 236 5.2 9.6 0.00 0.00 0.00 44 1014.7
20260506193040 60 220 5.2 13.0 0.00 0.00 0.00 44 1014.6
20260506192514 59 165 7.0 13.0 0.00 0.00 0.00 43 1014.6
20260506192011 59 132 6.1 13.0 0.00 0.00 0.00 45 1014.7
20260506191545 59 269 6.1 13.9 0.00 0.00 0.00 45 1014.3
20260506191016 59 213 7.0 13.9 0.00 0.00 0.00 45 1014.1
20260506190520 59 284 6.1 13.0 0.00 0.00 0.00 44 1014.2
20260506190044 60 139 4.3 12.2 0.00 0.00 0.00 44 1014.2
20260506185514 61 298 4.3 13.0 0.00 0.00 0.00 43 1014.4
20260506185014 60 207 6.1 13.0 0.00 0.00 0.00 44 1014.1
20260506184540 60 107 4.3 13.0 0.00 0.00 0.00 45 1014.1
20260506184017 60 110 5.2 13.9 0.00 0.00 0.00 45 1014.2
20260506183517 60 202 5.2 13.9 0.00 0.00 0.00 45 1014.1
20260506183052 60 104 3.5 11.3 0.00 0.00 0.00 45 1014.1
20260506182514 60 181 4.3 11.3 0.00 0.00 0.00 45 1014.1
20260506182015 60 267 2.6 10.4 0.00 0.00 0.00 44 1014.3
20260506181538 59 290 4.3 11.3 0.00 0.00 0.00 44 1014.3
20260506181017 59 178 4.3 14.8 0.00 0.00 0.00 46 1014.2
20260506180516 58 198 3.5 12.2 0.00 0.00 0.00 49 1014.4
20260506180040 58 182 7.0 12.2 0.00 0.00 0.00 49 1014.3
20260506175519 58 241 6.1 13.0 0.00 0.00 0.00 49 1014.2
20260506175014 58 267 7.0 17.4 0.00 0.00 0.00 48 1014.3
20260506174539 58 263 7.0 17.4 0.00 0.00 0.00 48 1013.9
20260506174014 59 225 4.3 13.9 0.00 0.00 0.00 47 1014.1
20260506173515 59 222 6.1 13.0 0.00 0.00 0.00 46 1014.1
20260506173050 59 196 6.1 13.9 0.00 0.00 0.00 45 1014.1
20260506172513 59 246 6.1 10.4 0.00 0.00 0.00 44 1014.1
20260506172015 59 218 3.5 7.8 0.00 0.00 0.00 45 1014.2
20260506171541 59 267 4.3 7.8 0.00 0.00 0.00 48 1014.1
20260506171019 58 233 4.3 7.0 0.00 0.00 0.00 48 1013.9
20260506170519 57 225 4.3 7.8 0.00 0.00 0.00 53 1014.1
20260506170100 58 248 3.5 8.7 0.00 0.00 0.00 52 1014.1
20260506165514 58 276 3.5 8.7 0.00 0.00 0.00 53 1014.1
20260506165014 58 251 4.3 10.4 0.00 0.00 0.00 52 1013.9
20260506164538 58 267 4.3 10.4 0.00 0.00 0.00 49 1013.7
20260506164021 58 227 4.3 7.0 0.00 0.00 0.00 47 1013.7
20260506163517 57 254 4.3 13.9 0.00 0.00 0.00 47 1013.6
20260506163041 56 252 4.3 10.4 0.00 0.00 0.00 45 1013.9
20260506162516 55 223 4.3 9.6 0.00 0.00 0.00 52 1013.9
20260506162016 55 244 4.3 8.7 0.00 0.00 0.00 55 1013.8
20260506161540 55 295 3.5 7.0 0.00 0.00 0.00 61 1013.8
20260506161013 55 225 2.6 7.8 0.00 0.00 0.00 56 1013.7
20260506160515 54 242 3.5 7.8 0.00 0.00 0.00 59 1014.0
20260506160046 54 236 5.2 7.8 0.00 0.00 0.00 58 1013.9
20260506155514 55 271 3.5 10.4 0.00 0.00 0.00 64 1014.0
20260506155013 54 239 5.2 13.0 0.00 0.00 0.00 52 1013.9
20260506154543 53 289 5.2 13.0 0.00 0.00 0.00 55 1013.9
20260506154016 53 232 3.5 9.6 0.00 0.00 0.00 60 1014.0
20260506153515 53 236 5.2 10.4 0.00 0.00 0.00 63 1013.9
20260506153045 52 279 4.3 7.0 0.00 0.00 0.00 59 1013.8
20260506152518 52 248 3.5 8.7 0.00 0.00 0.00 64 1013.8
20260506152016 54 272 4.3 10.4 0.00 0.00 0.00 58 1013.8
20260506151546 54 255 4.3 10.4 0.00 0.00 0.00 49 1013.7
20260506151017 54 277 4.3 13.0 0.00 0.00 0.00 51 1013.6
20260506150513 53 265 7.0 13.9 0.00 0.00 0.00 52 1013.7
20260506150046 51 258 4.3 8.7 0.00 0.00 0.00 63 1013.7
20260506145517 51 275 3.5 7.8 0.00 0.00 0.00 63 1013.7
20260506145018 51 243 4.3 7.8 0.00 0.00 0.00 63 1013.6
20260506144558 52 252 2.6 7.8 0.00 0.00 0.00 61 1013.6
20260506144014 52 211 4.3 7.0 0.00 0.00 0.00 59 1013.5
20260506143514 51 203 4.3 10.4 0.00 0.00 0.00 59 1013.4
20260506143041 51 227 7.0 10.4 0.00 0.00 0.00 59 1013.4
20260506142520 51 223 6.1 9.6 0.00 0.00 0.00 61 1013.4
20260506142019 52 265 4.3 8.7 0.00 0.00 0.00 59 1013.3
20260506141538 51 225 3.5 10.4 0.00 0.00 0.00 58 1013.3
20260506141019 51 223 2.6 6.1 0.00 0.00 0.00 61 1013.2
20260506140517 51 240 3.5 6.1 0.00 0.00 0.00 60 1013.2
20260506140043 51 235 2.6 10.4 0.00 0.00 0.00 59 1013.4
20260506135516 52 248 3.5 10.4 0.00 0.00 0.00 54 1013.2
20260506135014 50 238 1.7 7.0 0.00 0.00 0.00 62 1013.1
20260506134556 51 260 3.5 7.0 0.00 0.00 0.00 60 1013.2
20260506134017 52 252 3.5 10.4 0.00 0.00 0.00 54 1013.2
20260506133519 53 186 5.2 10.4 0.00 0.00 0.00 53 1013.2
20260506133044 52 265 5.2 8.7 0.00 0.00 0.00 52 1013.2
20260506132520 53 233 2.6 12.2 0.00 0.00 0.00 53 1013.1
20260506132018 54 246 6.1 12.2 0.00 0.00 0.00 43 1013.0
20260506131545 53 158 6.1 12.2 0.00 0.00 0.00 46 1013.0
20260506131014 53 246 4.3 10.4 0.00 0.00 0.00 48 1013.0
20260506130520 53 188 4.3 13.0 0.00 0.00 0.00 47 1012.9
20260506130046 53 228 6.1 13.0 0.00 0.00 0.00 46 1012.9
20260506125515 52 249 3.5 7.0 0.00 0.00 0.00 52 1012.9
20260506125019 54 207 3.5 8.7 0.00 0.00 0.00 48 1012.9
20260506124540 54 237 6.1 13.9 0.00 0.00 0.00 43 1012.8
20260506124017 55 257 6.1 13.9 0.00 0.00 0.00 41 1012.9
20260506123517 55 257 5.2 11.3 0.00 0.00 0.00 46 1012.7
20260506123039 55 248 5.2 13.0 0.00 0.00 0.00 40 1012.8
20260506122510 55 259 7.0 13.0 0.00 0.00 0.00 41 1013.0
20260506122014 54 223 7.0 13.0 0.00 0.00 0.00 43 1012.9
20260506121531 54 223 7.8 13.9 0.00 0.00 0.00 44 1012.8
20260506121011 53 156 5.2 14.8 0.00 0.00 0.00 46 1012.8
20260506120511 53 244 4.3 10.4 0.00 0.00 0.00 47 1012.9
20260506120040 53 221 4.3 11.3 0.00 0.00 0.00 46 1012.9
20260506115509 54 229 5.2 11.3 0.00 0.00 0.00 43 1012.9
20260506115009 55 200 4.3 12.2 0.00 0.00 0.00 42 1012.8
20260506114532 54 184 6.1 11.3 0.00 0.00 0.00 42 1012.7
20260506114012 54 246 6.1 14.8 0.00 0.00 0.00 42 1012.7
20260506113509 54 150 6.1 14.8 0.00 0.00 0.00 44 1012.8
20260506113034 54 249 7.0 12.2 0.00 0.00 0.00 43 1012.8
20260506112512 55 146 6.1 13.9 0.00 0.00 0.00 42 1012.9
20260506112011 55 209 6.1 13.9 0.00 0.00 0.00 43 1012.7
20260506111531 54 180 4.3 10.4 0.00 0.00 0.00 42 1012.7
20260506111017 55 213 6.1 9.6 0.00 0.00 0.00 43 1012.7
20260506110510 55 204 3.5 10.4 0.00 0.00 0.00 41 1012.7
20260506110033 55 211 5.2 10.4 0.00 0.00 0.00 40 1012.5
20260506105510 55 202 5.2 10.4 0.00 0.00 0.00 41 1012.5
20260506105009 55 210 6.1 10.4 0.00 0.00 0.00 40 1012.5
20260506104530 55 233 6.1 11.3 0.00 0.00 0.00 40 1012.4
20260506104010 56 205 5.2 13.0 0.00 0.00 0.00 38 1012.4
20260506103511 55 205 4.3 16.5 0.00 0.00 0.00 39 1012.4
20260506103040 55 238 6.1 16.5 0.00 0.00 0.00 37 1012.4
20260506102510 55 211 7.0 11.3 0.00 0.00 0.00 39 1012.5
20260506102011 54 264 5.2 9.6 0.00 0.00 0.00 41 1012.3
20260506101530 54 236 4.3 10.4 0.00 0.00 0.00 44 1012.4
20260506101009 55 245 4.3 10.4 0.00 0.00 0.00 41 1012.4
20260506100508 54 233 6.1 9.6 0.00 0.00 0.00 40 1012.3
20260506100034 54 233 3.5 9.6 0.00 0.00 0.00 44 1012.3
20260506095509 55 153 5.2 9.6 0.00 0.00 0.00 38 1012.3
20260506095011 56 211 4.3 9.6 0.00 0.00 0.00 37 1012.2
20260506094533 55 146 6.1 11.3 0.00 0.00 0.00 36 1012.2
20260506094009 56 271 4.3 13.9 0.00 0.00 0.00 38 1012.3
20260506093509 56 254 6.1 12.2 0.00 0.00 0.00 38 1012.3
20260506093029 56 233 7.8 13.9 0.00 0.00 0.00 38 1012.5
20260506092510 56 220 5.2 13.0 0.00 0.00 0.00 37 1012.4
20260506092011 56 241 6.1 13.0 0.00 0.00 0.00 35 1012.4
20260506091532 56 188 6.1 13.9 0.00 0.00 0.00 36 1012.4
20260506091011 56 220 7.0 11.3 0.00 0.00 0.00 36 1012.4